Погода в Конергине

Россия / Чукотский автономный округ     65°54′10″N   178°50′45″W
темп.,
°C
ветер,
м/с
пор.,
м/с
влажн.,
%
обл.,
%
осадки,
мм/ч
давл.,
гПа
погр.,
м
29 января, сб
сб2900:00−24св1110060 0.0 103216
03:00−25св1110035 0.0 103122
06:00−26всв0010061 0.0 103222
09:00−27всв1110082 0.0 103222
12:00−26св1110093 0.0 103217
15:00−27всв1110088 0.0 103125
18:00−28св1110099 0.0 103023
21:00−28св2210099 0.0 102915
30 января, вс
вс3000:00−28св1110084 0.0 102821
03:00−28св0010036 0.0 102718
06:00−28всв1110027 0.0 102617
09:00−28всв1110012 0.0 102719
12:00−27всв111009 0.0 102714
15:00−28ссв1110039 0.0 102720
18:00−28св229811 0.0 102821
21:00−27ссз1110022 0.0 102920
31 января, пн
пн3100:00−27ссв119811 0.0 103019
03:00−26ссв119475 0.0 103019
06:00−26ссв119257 0.0 103018
09:00−25ссв119199 0.0 103118
12:00−23св228815 0.0 103116
15:00−24св119299 0.0 103218
18:00−24св339461 0.0 103220
21:00−24св3394100 0.0 103320
1 февраля, вт
вт100:00−24св3391100 0.0 103318
03:00−21ссв4587100 0.0 103344
06:00−19св5981100 0.0 103288
09:00−16св71276100 0.0 1032132
12:00−16св9147699 0.0 1032143
15:00−17св91578100 0.0 1032147
18:00−18св9167786 0.0 1031157
21:00−16св111971100 0.0 1031198
2 февраля, ср
ср200:00−17св12217376 0.0 1030222
03:00−16св1120749 0.0 1030227
06:00−16св1019776 0.0 1030206
09:00−16св10207411 0.0 1030216
12:00−15св9187149 0.0 1029221
15:00−15св9177054 0.0 1029229
18:00−17св816765 0.0 1029185
21:00−17св918722 0.0 1029207